Terminal Aerodrome Forecast
Issued by NWS Sioux Falls, SD

Home | Current Version | Previous Version | Graphics & Text | Print | Product List | Glossary Off
Versions: 1 2 3 4 5 6 7 8 9 10 11 12 13 14 15 16 17 18

000
FTUS43 KFSD 010556 AAA
TAFHON
TAF AMD
KHON 010556Z 0106/0206 VRB05KT P6SM SCT070 BKN120
      TEMPO 0106/0108 6SM -TSRA OVC030CB
     FM010900 30005KT P6SM BKN120
     FM011400 32008KT P6SM SCT120 BKN250
     FM011900 34010KT P6SM SCT070 SCT250
     FM012200 32008KT P6SM SCT060 BKN120 PROB30 0122/0202 5SM -TSRA
      BKN050CB=

USA.gov is the U.S. government's official web portal to all federal, state and local government web resources and services.